Погода в Тугтуне

Россия / Республика Калмыкия     47°24′17″N   45°03′02″E
темп.,
°C
ветер,
м/с
пор.,
м/с
влажн.,
%
обл.,
%
осадки,
мм/ч
давл.,
гПа
погр.,
м
16 мая, вс
вс1600:00+20юв5133954 0.0 1014227
03:00+18юв464480 0.0 101474
06:00+19юв37515 0.0 1014153
09:00+27юв61029100 0.0 1014720
12:00+32юв101219100 0.0 10132906
15:00+33юв91118100 0.0 10113288
18:00+29юв71325100 0.0 1011369
21:00+24юв61629100 0.0 1012339
17 мая, пн
пн1700:00+21вюв616345 0.0 1011298
03:00+20в615335 0.0 1010232
06:00+20вюв6164225 0.0 1011341
09:00+29юв10152142 0.0 10101335
12:00+32юв11141523 0.0 10102886
15:00+32юв11131440 0.0 10093000
18:00+29юв814196 0.0 1009527
21:00+23вюв511253 0.0 1011172
18 мая, вт
вт1800:00+21в511285 0.0 1010170
03:00+19в5931100 0.0 1008147
06:00+20вюв374043 0.0 1009180
09:00+25ююв3431100 0.0 1009605
12:00+30юв4722100 0.0 10091746
15:00+32ю481894 0.0 10083006
18:00+28зсз563495 0.0 1008248
21:00+22зсз71157100 0.0 1011416
19 мая, ср
ср1900:00+21сз6126381 0.0 1011387
03:00+19зсз7116999 0.0 1011370
06:00+19сз5107069 0.1 1012397
09:00+24сз784735 0.1 1013920
12:00+27зсз66392 0.0 10131651
15:00+28сз33340 0.0 10132073
18:00+27сз223537 0.0 10122027
21:00+22ссз2251100 0.0 101312
20 мая, чт
чт2000:00+21всв2253100 0.0 101311
03:00+21вюв3353100 0.0 101333
06:00+21юв3755100 0.0 1013194
09:00+27ююв5639100 0.0 1014863
12:00+30ююв2430100 0.0 10131973
15:00+33вюв3523100 0.0 10122849
18:00+32вюв46268 0.0 1011174
21:00+26юв6133015 0.0 1012288